Reynolds, ND

10:35 PM CDT on June 24, 2017 (GMT -0500)
Jeff and Kari's | | Change Station

Elev 860 ft 47.57 °N, 96.93 °W | Updated 43 seconds ago

Overcast
Overcast
51.2 °F
Feels Like 51.2 °F
N
8.0
Wind Variable Wind from WNW
Gusts 11.0 mph

Today
High -- | Low -- °F
--% Chance of Precip.
Yesterday
High -- | Low -- °F
Precip. -- in
Pressure 30.18 in
Visibility 10.0 miles
Clouds Overcast 6500 ft
Dew Point 46 °F
Humidity 81%
Rainfall 0.09 in
Snow Depth Not available.
5:31 AM 9:30 PM
New Moon, 2% visible
METAR KGFK 250253Z 33010KT 10SM -RA OVC065 11/08 A3016 RMK AO2 RAB51 SLP218 P0000 60001 T01110083 53010
Pressure 30.18 in
Visibility 10.0 miles
Clouds Overcast 6500 ft
Dew Point 46 °F
Humidity 81%
Rainfall 0.09 in
Snow Depth Not available.
5:31 AM 9:30 PM
New Moon, 2% visible
METAR KGFK 250253Z 33010KT 10SM -RA OVC065 11/08 A3016 RMK AO2 RAB51 SLP218 P0000 60001 T01110083 53010

Get Severe Weather Alerts

Thanks for signing up!

Be on the lookout for a verification email in your inbox.

You'll start receiving the daily forecast at 6 AM.

×

10-Day Weather Forecast

Almanac

Astronomy

Jun. 24, 2017 Rise Set
Actual Time
Civil Twilight
Nautical Twilight
Astronomical Twilight
Moon
Length of Visible Light
Length of Day
Tomorrow will be .
, % of the Moon is Illuminated

Today's Extremes

State Highs State Lows

Community

WunderPhotos

Category 6

Welcome to Category 6. This is the collective home for Weather Underground's featured writeups by Dr. Jeff Masters (right), Bob Henson (left), Chris Burt, and other regular contributors.

Nearby

Air Quality

  Air Quality AQ Index Pollutant
Not available.

Snow Depth

Station Depth Elevation

Earthquake Activity

City Distance Mag. Time & Date
Minimum magnitude displayed is 2.5.

Coastal Water Temperatures

Place Temperature

Stations

Nearby Weather Stations

Station Location Temp. Windchill Dew Point Humidity Wind Precip. Elev Updated Type
                   

Watches & Warnings

There are currently no watches in effect.